Terug naar catalogus

YAOGAN 17B

ActiefMilitairLEO
NORAD 39240·PAYLOAD·🇨🇳 China

Gelanceerd Sep 1, 2013 vanaf Jiuquan Satellite Launch Center

Loading…

Volgende Passages (komende 24 uur)

TLE

VersSource: Space-Track

Epoch: Sep 14, 2026, 14:39 UTC

1 39240U 13046B   26257.61050484  .00000021  00000-0  10631-3 0  9999
2 39240  63.3846 220.1906 0434219  11.8258 349.2579 13.45480048640363

Volg YAOGAN 17B in realtime met AllMySat

Download on the App Store